Skagway, AK

4:17 AM AKDT on July 28, 2017 (GMT -0800)
Skagway

Weather History for PAGY - December, 2012

Change the Weather History Date:

Wednesday, December 5, 2012

  Actual Average Record
Temperature  
Mean Temperature 12 °F -  
Max Temperature 15 °F 33 °F 48 °F (2011)
Min Temperature 10 °F 26 °F -6 °F (1970)
Degree Days  
Heating Degree Days 52    
Moisture  
Dew Point -4 °F    
Average Humidity 45    
Maximum Humidity 47    
Minimum Humidity 42    
Precipitation  
Precipitation 0.00 in - - ()
Sea Level Pressure  
Sea Level Pressure 29.78 in    
Wind  
Wind Speed 23 mph (NE)    
Max Wind Speed 34 mph    
Max Gust Speed 46 mph    
Visibility 10 miles    
Events Snow    
Averages and records for this station are not official NWS values.
T = Trace of Precipitation, MM = Missing Value Source: NWS Daily Summary

Daily Weather History Graph

Daily Weather History Graph

Search for Another Location

Airport or City:

Trip Planner

Search our weather history database for the weather conditions in past years. The results will help you decide how hot, cold, wet, or windy it might be!

Date:

Astronomy

Dec. 05, 2012 Rise Set
Actual Time 8:40 AM AKST 3:03 PM AKST
Civil Twilight 7:46 AM AKST 3:57 PM AKST
Nautical Twilight 6:52 AM AKST 4:52 PM AKST
Astronomical Twilight 6:01 AM AKST 5:42 PM AKST
Moon 11:23 PM AKST (12/5) 11:52 AM AKST (12/5)
Length of Visible Light 8h 11m
Length of Day
6h 23m
Waning Gibbous, 58% of the Moon is Illuminated
Dec 5
Waning Gibbous
Dec 6
Last Quarter
Dec 12
New
Dec 19
First Quarter
Dec 28
Full

Hourly Weather History & Observations

Time (AKST) Temp. Windchill Dew Point Humidity Pressure Visibility Wind Dir Wind Speed Gust Speed Precip Events Conditions
12:53 AM 10.9 °F -2.6 °F -7.1 °F 44% 29.69 in 10.0 mi NE 10.4 mph 36.8 mph 0.00 in   Overcast
1:53 AM 10.0 °F -11.9 °F -9.0 °F 42% 29.70 in 9.0 mi NE 28.8 mph 41.4 mph 0.00 in Snow Light Snow
3:53 AM 10.0 °F -12.5 °F -8.0 °F 44% 29.72 in 9.0 mi NE 31.1 mph 40.3 mph 0.00 in Snow Light Snow
5:53 AM 10.9 °F -11.0 °F -7.1 °F 44% 29.74 in 10.0 mi NE 29.9 mph 41.4 mph 0.00 in   Overcast
6:53 AM 12.0 °F -7.7 °F -5.1 °F 46% 29.75 in 10.0 mi NE 24.2 mph 35.7 mph 0.00 in   Overcast
7:53 AM 12.0 °F -6.5 °F -6.0 °F 44% 29.77 in 10.0 mi NE 20.7 mph 31.1 mph N/A   Overcast
8:53 AM 12.0 °F -6.5 °F -5.1 °F 46% 29.78 in 10.0 mi NE 20.7 mph 34.5 mph 0.00 in   Overcast
9:53 AM 12.9 °F -5.7 °F -5.1 °F 45% 29.78 in 10.0 mi NE 21.9 mph 35.7 mph 0.00 in   Overcast
10:53 AM 14.0 °F -6.2 °F -4.0 °F 45% 29.79 in 10.0 mi NE 27.6 mph 38.0 mph 0.00 in   Overcast
11:53 AM 14.0 °F -2.0 °F -4.0 °F 45% 29.81 in 10.0 mi NE 16.1 mph 38.0 mph 0.00 in   Overcast
12:53 PM 15.1 °F -4.7 °F -4.0 °F 43% 29.79 in 9.0 mi NE 27.6 mph 36.8 mph 0.00 in Snow Light Snow
1:53 PM 14.0 °F -5.1 °F -4.0 °F 45% 29.79 in 10.0 mi NE 24.2 mph 34.5 mph 0.00 in   Overcast
2:53 PM 14.0 °F -5.8 °F -4.0 °F 45% 29.81 in 10.0 mi NE 26.5 mph 38.0 mph N/A   Overcast
3:53 PM 14.0 °F -7.4 °F -4.0 °F 45% 29.80 in 10.0 mi NE 32.2 mph 38.0 mph 0.00 in   Overcast
4:53 PM 14.0 °F -5.1 °F -2.9 °F 47% 29.81 in 10.0 mi NE 24.2 mph 34.5 mph 0.00 in   Overcast
5:53 PM 14.0 °F -4.7 °F -4.0 °F 45% 29.81 in 9.0 mi NE 23.0 mph 36.8 mph 0.00 in   Overcast
6:53 PM 15.1 °F -3.3 °F -2.0 °F 47% 29.79 in 10.0 mi NE 23.0 mph 42.6 mph 0.00 in   Overcast
7:53 PM 15.1 °F -5.3 °F -2.9 °F 45% 29.79 in 9.0 mi NE 29.9 mph 46.0 mph 0.00 in Snow Light Snow
8:53 PM 15.1 °F -6.5 °F -2.0 °F 47% 29.79 in 9.0 mi NE 34.5 mph 41.4 mph 0.00 in Snow Light Snow
9:53 PM 15.1 °F -3.7 °F -2.0 °F 47% 29.82 in 9.0 mi NE 24.2 mph 38.0 mph 0.00 in Snow Light Snow
10:53 PM 15.1 °F -5.7 °F -2.9 °F 45% 29.82 in 10.0 mi NE 31.1 mph 40.3 mph 0.00 in   Overcast
11:53 PM 15.1 °F -5.0 °F -2.0 °F 47% 29.83 in 10.0 mi NE 28.8 mph 34.5 mph 0.00 in   Overcast